Regional Weather Roundup
Issued by NWS

Home | Current Version | Previous Version | Text Only | Print | Product List | Glossary On
Versions: 1 2 3 4 5 6 7 8 9 10 11 12 13 14 15 16 17 18 19 20 21 22 23 24 25 26 27
000
ASUS45 KTFX 181310
RWRMT
MONTANA REGIONAL WEATHER ROUNDUP
NATIONAL WEATHER SERVICE GREAT FALLS MT
600 AM MST MON DEC 18 2017

NOTE: "FAIR" INDICATES FEW OR NO CLOUDS BELOW 12000 FEET WITH NO
SIGNIFICANT WEATHER AND/OR OBSTRUCTIONS TO VISIBILITY.

MTZ001>007-043-181400-
WEST OF THE DIVIDE

CITY           SKY/WX    TMP DP  RH WIND       PRES   REMARKS
KALISPELL      LGT RAIN  37  34  89 SE15      29.77S WCI  28
MISSOULA       CLOUDY    28  25  88 VRB6      29.88F WCI  22
BUTTE          CLOUDY    39  25  57 W14G25    29.86S WCI  31
MULLAN PASS    SNOW      29  26  89 SW6       29.81F VSB 1/2 WCI  23
ANACONDA         N/A     43  27  52 W13G23    29.82R
DEER LODGE       N/A     39  28  65 S8G22     29.84R
EUREKA           N/A     39  32  75 MISG      29.72S
HAMILTON         N/A     41  32  70 SE17      29.89S
LIBBY            N/A     39  34  81 S8G17     29.76F
RONAN            N/A     39  29  68 S8        29.88R
$$

MTZ008-052>055-181400-
SOUTHWEST MONTANA

CITY           SKY/WX    TMP DP  RH WIND       PRES   REMARKS
BOZEMAN        FAIR      42  28  57 SW20G28   29.81F
DILLON         CLOUDY    28  19  69 S8        29.93S WCI  20
W YELLOWSTONE  CLOUDY    18  16  93 SW12G26   30.07S FOG     WCI   5
ENNIS          CLOUDY    28  21  74 S29G38    29.98R WCI  13
THREE FORKS      N/A     38  28  67 S17       29.82F WCI  28
$$

MTZ009-010-012-014-046-048-049-054-181400-
EAST SLOPES AND CENTRAL MONTANA

CITY           SKY/WX    TMP DP  RH WIND       PRES   REMARKS
CUT BANK       FAIR      35  28  75 W25G36    29.57F WCI  23
GREAT FALLS    FAIR      42  26  53 SW21G29   29.65R
MALMSTROM AFB  MOCLDY    43  28  54 SW26G35   29.64S
HELENA         CLOUDY    32  25  75 CALM      29.76S
BOWMANS CRNR   FAIR      37  25  63 E3        29.66S
CHOTEAU          N/A     45  25  45 W18G26    29.64R
FAIRFIELD      MOCLDY    42  25  51 SW24G33   29.62R
POWER          MOCLDY    41  26  56 SW20G26   29.62
RAYNESFORD     MOCLDY    44  27  50 SW31G39   29.64F
ULM            MOCLDY    44  28  53 SW24G36   29.67F
$$

MTZ011-013-016-021-045-047-050-051-181400-
NORTH CENTRAL MONTANA

CITY           SKY/WX    TMP DP  RH WIND       PRES   REMARKS
HAVRE          CLOUDY    39  28  64 W12       29.57R WCI  32
LEWISTOWN      CLOUDY    40  29  64 SW20      29.65R
N BAR RANCH    MOCLDY    46  23  39 W22G39    29.62S
CHINOOK          N/A     43  28  56 W12       29.56R
DENTON         MOCLDY    45  27  49 MISG      29.58R
GEYSER         MOCLDY    44  27  52 W36G47    29.59S
GRASS RANGE    CLOUDY    46  28  48 W28G36    29.58S
STANFORD       MOCLDY    42  28  57 W32G46    29.61S
WINIFRED       CLOUDY    45  27  48 W24G33    29.60R
$$

MTZ017>020-022>027-061-062-181400-
NORTHEAST MONTANA

CITY           SKY/WX    TMP DP  RH WIND       PRES   REMARKS
GLASGOW        LGT RAIN  37  30  75 W3        29.56F
GLENDIVE       LGT RAIN  34  29  82 SW9       29.64S WCI  27
JORDAN           N/A     35  29  78 CALM      29.60F
SIDNEY         LGT RAIN  37  25  61 SW14      29.62R WCI  28
WOLF POINT     LGT SNOW  34  30  85 W6        29.60F FOG     WCI  29
MALTA          CLOUDY    36  30  80 CALM      29.56S
PLENTYWOOD       N/A     34  25  69 CALM      29.54F
POPLAR           N/A     34  30  86 W8        29.60F WCI  27
$$

MTZ028>42-056>058-181400-
SOUTHCENTRAL AND SOUTHEAST MONTANA

CITY           SKY/WX    TMP DP  RH WIND       PRES   REMARKS
BAKER          CLOUDY    33  23  66 W17       29.66S WCI  22
BILLINGS       CLOUDY    36  23  59 SW25G37   29.70F WCI  24
LIVINGSTON     CLOUDY    36  30  79 SW47G67   29.71F SQUALL  WCI  20
MILES CITY     MOCLDY    32  24  72 S7        29.66F WCI  26
BIG TIMBER     CLOUDY    36  25  64 W17G23    29.78R WCI  25
FORSYTH          N/A     37  21  52 SW9       29.67S WCI  31
HARLOWTON      MOCLDY    38  29  68 W9        29.70R
LAUREL           N/A     34  23  64 SW28G35   29.73S WCI  20
$$

REGIONAL REPORTS...DAKOTAS

CITY           SKY/WX    TMP DP  RH WIND       PRES   REMARKS
WILLISTON      CLOUDY    37  23  56 W12       29.58S WCI  29
MINOT          MOCLDY    38  23  55 SW14      29.53S WCI  30
DICKINSON      CLOUDY    33  22  63 SW14      29.61R WCI  23
BEACH          CLOUDY    34  23  64 W13G18    29.66R WCI  25
CROSBY         FAIR      32  25  74 SW12      29.55R WCI  23
TIOGA          MOCLDY    32  23  69 W15       29.55S WCI  22
BISMARCK       MOCLDY    32  24  72 SW10      29.64S WCI  24
GRAND FORKS    CLOUDY    29  25  85 S12       29.57S WCI  19
FARGO          FAIR      27  25  92 S10       29.64F WCI  17
BUFFALO SD       N/A     29  19  66 W8        29.61F WCI  21
RAPID CITY     FAIR      26  17  68 SE3       29.76F
$$

REGIONAL REPORTS...WYOMING/IDAHO/WASHINGTON

CITY           SKY/WX    TMP DP  RH WIND       PRES   REMARKS
GILLETTE       FAIR      33  22  63 SW21      29.72F WCI  21
SHERIDAN       FAIR      18  15  88 N5        29.71R
BUFFALO WY     FAIR      36  18  48 NW9       29.73R WCI  29
CODY           FAIR      39  21  48 W13G22    29.85S WCI  31
YELLOWSTONE LA   N/A     15  13  91 CALM      30.06S
IDAHO FALLS    CLOUDY    23  20  88 N7        30.20S WCI  15
SALMON         CLOUDY    23  18  81 CALM      30.08S
BOISE          CLOUDY    33  25  72 SW3       30.18F
SPOKANE        LGT RAIN  37  34  89 S20       29.86F WCI  27
$$

REGIONAL REPORTS...ALBERTA

CITY           SKY/WX    TMP DP  RH WIND       PRES   REMARKS
EDMONTON       CLEAR     25  12  58 W10       29.57R WCI  15
CALGARY        LGT SNOW  27  23  86 N9        29.61R FOG     WCI  17
LETHBRIDGE     MOCLDY    34  21  60 N8        29.56R WCI  27
MEDICINE HAT   CLOUDY    32  25  74 NW12      29.55R WCI  23
$$

REGIONAL REPORTS...SASKATCHEWAN

CITY           SKY/WX    TMP DP  RH WIND       PRES   REMARKS
SWIFT CURRENT  LGT SNOW  32  30  93 NW7       29.50  WCI  26
REGINA         CLOUDY    28  25  86 W8        29.50R WCI  20
SASKATOON      PTCLDY    19  14  79 W8        29.48S WCI   9
$$




USA.gov is the U.S. government's official web portal to all federal, state and local government web resources and services.